Back to catalog

CENTAURI-1

AliveCommunicationsSSO
NORAD 43809·PAYLOAD·🇦🇺 Australia

Launched Dec 3, 2018 from Vandenberg Space Force Base

Loading…

Next Passes (next 24 hours)

TLE

FreshSource: Space-Track

Epoch: Sep 14, 2026, 14:20 UTC

1 43809U 18099BD  26257.59791061  .00003905  00000-0  19974-3 0  9991
2 43809  97.4128 307.4020 0014340  23.9141 336.2756 15.17135987426051

Track CENTAURI-1 in real time with AllMySat

Download on the App Store